Regional Weather Roundup
Issued by NWS Sterling, VA

Home | Current Version | Previous Version | Text Only | Print | Product List | Glossary Off
Versions: 1 2 3 4 5 6 7 8 9 10 11 12 13 14 15 16 17 18 19 20 21 22 23 24 25 26 27 28 29 30 31 32 33 34 35 36 37 38 39 40 41 42 43 44 45 46 47 48 49 50

000
ASUS41 KLWX 300411
RWRLWX

REGIONAL WEATHER ROUNDUP
NATIONAL WEATHER SERVICE BALTIMORE MD/WASHINGTON DC
1200 AM EDT FRI SEP 30 2016

Note: "FAIR" indicates few or no clouds below 12,000 feet
with no significant weather and/or obstructions to visibility.
 TC=TEMPERATURE CELSIUS

 * =Non NWS site. Station does not report precipitation (e.g. rain,
    snow, etc.), thunder, or fog.

DCZ001-MDZ009-015-VAZ040>042-051-053>054-300500-
WASHINGTON METRO

CITY           SKY/WX    TMP DP  RH WIND       PRES   REMARKS
WASHINGTON NAT LGT RAIN  65  64  97 NE14      30.16F
DULLES         LGT RAIN  63  61  93 E10       30.16S
ANDREWS AFB    CLOUDY    64  61  88 NE16G23   30.14F
FT BELVOIR     CLOUDY    64  63  94 VRB6      30.14F
QUANTICO       LGT RAIN  67  64  90 NE12      30.14S FOG
COLLEGE PARK*  CLOUDY    61  61 100 NE8       30.17S
LEESBURG*      CLOUDY    63  63 100 NE6       30.18F
MANASSAS*      CLOUDY    64  63  94 NE6       30.15S
GAITHERSBURG*  CLOUDY    61  57  88 E6        30.21S

$$

MDZ006>007-011-014-300500-
BALTIMORE METRO

CITY           SKY/WX    TMP DP  RH WIND       PRES   REMARKS
BWI AIRPORT    LGT RAIN  63  60  90 E16G23    30.18S
MD SCIENCE CTR   N/A     63  59  87 MISG      30.19S
ANNAPOLIS      CLOUDY    66  62  87 E17G24    30.16F
FORT MEADE*    CLOUDY    61  59  94 E13G18    30.20S

$$

MDZ012-015-019>023-300500-
MARYLAND EASTERN SHORE

CITY           SKY/WX    TMP DP  RH WIND       PRES   REMARKS
OCEAN CITY     RAIN     N/A N/A N/A E23G33    30.08F
SALISBURY      HVY RAIN  68  67  96 NE14G22   30.09F FOG
BAY BRIDGE AP* RAIN      63  61  94 MISG      30.15S FOG
CAMBRIDGE*     CLOUDY    64  63  94 NE10G18   30.12S

$$

MDZ017>025-300500-
SOUTHERN MARYLAND

CITY           SKY/WX    TMP DP  RH WIND       PRES   REMARKS
PATUXENT RIVER LGT RAIN  67  65  93 E16G28    30.09F FOG
ST INIGOES     LGT RAIN  68  67  96 NE13G23   30.08F FOG
LEONARDTOWN*   CLOUDY    66  63  88 E7G16     30.12F

$$

MDZ003>005-300500-
NORTH CENTRAL MARYLAND

CITY           SKY/WX    TMP DP  RH WIND       PRES   REMARKS
FREDERICK*     NOT AVBL
HAGERSTOWN APT CLOUDY    61  57  87 NE13      30.20S

$$

MDZ501>502-300500-
WESTERN MARYLAND

CITY           SKY/WX    TMP DP  RH WIND       PRES   REMARKS
OAKLAND*         N/A     52  52 100 E18G26    30.17R FOG
CUMBERLAND*    CLOUDY    59  59 100 N3        30.23R

$$

VAZ025>031-300500-
SHENANDOAH VALLEY

CITY           SKY/WX    TMP DP  RH WIND       PRES   REMARKS
WINCHESTER*    RAIN      61  61 100 CALM      30.18R
FRONT ROYAL*   CLOUDY    61  61 100 NE6       30.15F
LURAY*         DRIZZLE  N/A N/A N/A NE6       30.14S
NEW MARKET*    CLOUDY   N/A N/A N/A N12       30.12S
STAUNTON*      DRIZZLE   64  62  93 E15G21    30.12F
WAYNESBORO*    CLOUDY    64  62  96 E9G16     30.11S

$$

WVZ021-048>050-054>055-300500-
EASTERN WEST VIRGINIA PANHANDLE

CITY           SKY/WX    TMP DP  RH WIND       PRES   REMARKS
MARTINSBURG    HVY RAIN  60  59  96 NE6       30.19R FOG
PETERSBURG*    LGT RAIN  64  62  91 CALM      30.13F

$$

VAZ036>039-050-300500-
CENTRAL FOOTHILLS

CITY           SKY/WX    TMP DP  RH WIND       PRES   REMARKS
CHARLOTTESVILL CLOUDY    67  64  90 E9        30.11S
CULPEPER*      RAIN      65  65  98 NE5       30.15S
ORANGE*          N/A     64  64 100 N8        30.14F
GORDONSVILLE*  NOT AVBL
WARRENTON*     RAIN      65  60  85 NE7       30.14S

$$

VAZ055>057-300500-
NORTH AND CENTRAL PIEDMONT

CITY           SKY/WX    TMP DP  RH WIND       PRES   REMARKS
FREDERICKSBRG* CLOUDY    66  66 100 NE6       30.12S FOG
STAFFORD*      RAIN      65  65 100 NE9       30.17F

$$

NCZ024-NYZ072-PAZ021-071-VAZ022-071-300500-
OTHER REGIONAL OBSERVATIONS

CITY           SKY/WX    TMP DP  RH WIND       PRES   REMARKS
NEW YORK CITY  CLOUDY    60  52  74 E18G26    30.38F
PHILADELPHIA   LGT RAIN  61  58  90 NE17G25   30.26F
PITTSBURGH     LGT RAIN  58  58 100 E13       30.16S FOG
ROANOKE        CLOUDY    66  64  93 W3        30.06S
RICHMOND       LGT RAIN  68  67  96 NE7       30.08F FOG
RALEIGH        CLOUDY    73  71  93 SE7       30.03F

$$

ANZ530>537-300500-
MARINE OBSERVATIONS

STATION/POSITION TIME  TEMP    WIND        PRES
                       AIR SEA DIR/SP/G
                 (UTC) (F)     (DEG/KT/KT) (MB)
THOMAS PT LIGHT  0400   65 72   60/ 17/ 20 1022.2R
BALT KEY BRIDGE  0348   64      60/ 15/ 19 1021.9R
COVE POINT       0348   68     100/ 26/ 34 1019.9F
LEWISETTA        0348   70 72   80/ 19/ 26 1018.0F
SOLOMONS ISLAND  0348           60/ 17/ 24   N/A
PINEY POINT      0348           70/ 16/ 20   N/A

$$




USA.gov is the U.S. government's official web portal to all federal, state and local government web resources and services.